| time (UTC) | temp C | wind direction | speed KPH | gust KPH | rain 1hr cm | rain 24hr cm | rain mn cm | humidity % | barometer mb |
| 20260905073036 | 21 | 146 | 0.0 | 0.0 | 0.00 | 1.80 | 0.00 | 89 | 1012.5 |
| 20260905071540 | 21 | 146 | 0.0 | 0.0 | 0.00 | 1.80 | 0.00 | 89 | 1012.3 |
| 20260905070052 | 21 | 146 | 0.0 | 0.0 | 0.00 | 1.80 | 0.00 | 89 | 1011.8 |
| 20260905064558 | 21 | 146 | 0.0 | 0.0 | 0.00 | 1.80 | 0.00 | 89 | 1011.5 |
| 20260905063052 | 21 | 146 | 0.0 | 0.0 | 0.00 | 1.80 | 0.00 | 89 | 1011.8 |
| 20260905061557 | 21 | 146 | 0.0 | 0.0 | 0.00 | 1.80 | 0.00 | 89 | 1012.2 |
| 20260905060104 | 21 | 146 | 0.0 | 0.0 | 0.00 | 1.80 | 0.00 | 89 | 1012.5 |
| 20260905054613 | 21 | 146 | 0.0 | 4.8 | 0.00 | 1.80 | 0.00 | 89 | 1012.8 |
| 20260905054502 | 21 | 146 | 1.6 | 4.8 | 0.00 | 1.80 | 0.00 | 89 | 1012.8 |
| 20260905053009 | 21 | 146 | 0.0 | 0.0 | 0.00 | 1.80 | 0.00 | 89 | 1012.9 |
| 20260905051514 | 21 | 146 | 1.6 | 4.8 | 0.00 | 1.80 | 0.00 | 88 | 1013.2 |
| 20260905050017 | 22 | 183 | 3.2 | 6.4 | 0.00 | 1.80 | 0.00 | 88 | 1013.5 |
| 20260905044516 | 21 | 174 | 0.0 | 4.8 | 0.00 | 1.80 | 0.00 | 89 | 1013.6 |
| 20260905043011 | 21 | 163 | 0.0 | 4.8 | 0.00 | 1.80 | 0.00 | 89 | 1013.7 |
| 20260905041514 | 21 | 142 | 0.0 | 4.8 | 0.00 | 1.80 | 0.00 | 88 | 1013.8 |
| 20260905040011 | 22 | 159 | 1.6 | 4.8 | 0.00 | 1.80 | 0.00 | 88 | 1013.5 |
| 20260905034516 | 22 | 159 | 0.0 | 3.2 | 0.00 | 1.80 | 1.80 | 89 | 1013.7 |
| 20260905033014 | 22 | 159 | 1.6 | 4.8 | 0.00 | 1.80 | 1.80 | 89 | 1013.7 |
| 20260905031556 | 22 | 165 | 1.6 | 4.8 | 0.00 | 1.80 | 1.80 | 89 | 1013.6 |
| 20260905030059 | 22 | 171 | 1.6 | 4.8 | 0.00 | 1.80 | 1.80 | 89 | 1013.4 |
| 20260905024554 | 22 | 335 | 0.0 | 0.0 | 0.00 | 1.80 | 1.80 | 89 | 1013.3 |
| 20260905023045 | 22 | 335 | 0.0 | 0.0 | 0.00 | 1.80 | 1.80 | 88 | 1013.4 |
| 20260905021553 | 22 | 335 | 0.0 | 0.0 | 0.00 | 1.80 | 1.80 | 88 | 1013.3 |
| 20260905020004 | 22 | 335 | 0.0 | 0.0 | 0.00 | 1.80 | 1.80 | 88 | 1013.0 |
| 20260905014504 | 22 | 335 | 0.0 | 0.0 | 0.00 | 1.80 | 1.80 | 88 | 1013.0 |
| 20260905013007 | 22 | 335 | 0.0 | 0.0 | 0.00 | 1.80 | 1.80 | 88 | 1012.8 |
| 20260905011511 | 23 | 335 | 0.0 | 0.0 | 0.00 | 1.80 | 1.80 | 88 | 1012.9 |
| 20260905010017 | 23 | 335 | 0.0 | 0.0 | 0.00 | 1.80 | 1.80 | 88 | 1012.9 |
| 20260905004531 | 23 | 335 | 0.0 | 4.8 | 0.00 | 1.80 | 1.80 | 88 | 1012.8 |
| 20260905003004 | 23 | 335 | 0.0 | 0.0 | 0.00 | 1.80 | 1.80 | 87 | 1012.7 |
| 20260905001508 | 23 | 274 | 0.0 | 0.0 | 0.00 | 1.80 | 1.80 | 87 | 1012.6 |
| 20260905000016 | 23 | 274 | 0.0 | 0.0 | 0.00 | 1.80 | 1.80 | 87 | 1012.7 |
| 20260904234525 | 23 | 274 | 0.0 | 0.0 | 0.00 | 1.80 | 1.80 | 87 | 1012.5 |
| 20260904233038 | 24 | 274 | 0.0 | 0.0 | 0.00 | 1.80 | 1.80 | 87 | 1012.6 |
| 20260904231527 | 24 | 274 | 0.0 | 0.0 | 0.00 | 1.80 | 1.80 | 87 | 1012.8 |
| 20260904230040 | 24 | 274 | 0.0 | 0.0 | 0.00 | 1.80 | 1.80 | 87 | 1012.7 |
| 20260904224537 | 24 | 274 | 0.0 | 0.0 | 0.00 | 1.80 | 1.80 | 87 | 1012.9 |
| 20260904223043 | 24 | 274 | 0.0 | 0.0 | 0.00 | 1.80 | 1.80 | 87 | 1013.1 |
| 20260904221553 | 24 | 173 | 0.0 | 0.0 | 0.00 | 1.80 | 1.80 | 87 | 1013.2 |
| 20260904220107 | 24 | 173 | 0.0 | 0.0 | 0.00 | 1.80 | 1.80 | 88 | 1013.2 |
| 20260904214558 | 23 | 183 | 0.0 | 6.4 | 0.00 | 1.80 | 1.80 | 88 | 1013.3 |
| 20260904213005 | 23 | 293 | 0.0 | 4.8 | 0.00 | 1.80 | 1.80 | 88 | 1012.7 |
| 20260904211505 | 22 | 251 | 0.0 | 0.0 | 0.00 | 1.80 | 1.80 | 89 | 1012.7 |
| 20260904210007 | 21 | 251 | 1.6 | 4.8 | 0.00 | 1.80 | 1.80 | 88 | 1013.5 |
| 20260904204506 | 21 | 196 | 1.6 | 8.0 | 0.08 | 1.80 | 1.80 | 88 | 1013.7 |
| 20260904203009 | 21 | 163 | 3.2 | 8.0 | 0.91 | 1.80 | 1.80 | 88 | 1013.4 |
| 20260904201509 | 21 | 175 | 3.2 | 8.0 | 1.80 | 1.80 | 1.80 | 89 | 1014.1 |
| 20260904200019 | 21 | 172 | 4.8 | 6.4 | 1.80 | 1.80 | 1.80 | 89 | 1014.1 |
| 20260904194515 | 20 | 163 | 3.2 | 30.6 | 1.73 | 1.73 | 1.73 | 89 | 1014.5 |
| 20260904193021 | 21 | 349 | 29.0 | 83.7 | 0.89 | 0.89 | 0.94 | 84 | 1017.0 |
| 20260904190021 | 32 | 329 | 4.8 | 8.0 | 0.00 | 0.00 | 0.00 | 64 | 1013.3 |
| 20260904184525 | 32 | 350 | 4.8 | 11.3 | 0.00 | 0.00 | 0.00 | 66 | 1013.3 |
| 20260904183029 | 32 | 357 | 0.0 | 6.4 | 0.00 | 0.00 | 0.00 | 65 | 1013.7 |
| 20260904181538 | 32 | 334 | 3.2 | 8.0 | 0.00 | 0.00 | 0.00 | 65 | 1013.9 |
| 20260904180048 | 32 | 342 | 3.2 | 12.9 | 0.00 | 0.00 | 0.00 | 66 | 1014.1 |
| 20260904174546 | 31 | 316 | 3.2 | 11.3 | 0.00 | 0.00 | 0.00 | 66 | 1014.4 |
| 20260904173103 | 32 | 340 | 4.8 | 14.5 | 0.00 | 0.00 | 0.00 | 66 | 1014.7 |
| 20260904171555 | 31 | 337 | 4.8 | 12.9 | 0.00 | 0.00 | 0.00 | 65 | 1014.7 |
| 20260904170107 | 32 | 346 | 6.4 | 14.5 | 0.00 | 0.00 | 0.00 | 64 | 1014.9 |
| 20260904170001 | 32 | 337 | 8.0 | 14.5 | 0.00 | 0.00 | 0.00 | 65 | 1014.9 |
| 20260904164504 | 32 | 325 | 4.8 | 12.9 | 0.00 | 0.00 | 0.00 | 68 | 1014.9 |
| 20260904163014 | 32 | 322 | 4.8 | 8.0 | 0.00 | 0.00 | 0.00 | 69 | 1014.9 |
| 20260904161515 | 31 | 298 | 3.2 | 8.0 | 0.00 | 0.00 | 0.00 | 72 | 1015.1 |
| 20260904160013 | 31 | 321 | 1.6 | 8.0 | 0.00 | 0.00 | 0.00 | 72 | 1015.2 |
| 20260904154514 | 31 | 307 | 3.2 | 9.7 | 0.00 | 0.00 | 0.00 | 73 | 1015.2 |
| 20260904153015 | 30 | 309 | 3.2 | 11.3 | 0.00 | 0.00 | 0.00 | 75 | 1015.1 |
| 20260904151517 | 30 | 331 | 4.8 | 11.3 | 0.00 | 0.00 | 0.00 | 73 | 1015.0 |
| 20260904150031 | 30 | 315 | 4.8 | 11.3 | 0.00 | 0.00 | 0.00 | 74 | 1014.9 |
| 20260904144518 | 29 | 330 | 3.2 | 9.7 | 0.00 | 0.00 | 0.00 | 76 | 1014.9 |
| 20260904143029 | 28 | 317 | 3.2 | 6.4 | 0.00 | 0.00 | 0.00 | 78 | 1014.8 |
| 20260904141602 | 28 | 304 | 3.2 | 6.4 | 0.00 | 0.00 | 0.00 | 79 | 1014.8 |
| 20260904140059 | 28 | 339 | 3.2 | 6.4 | 0.00 | 0.00 | 0.00 | 79 | 1014.8 |
| 20260904134556 | 27 | 316 | 1.6 | 4.8 | 0.00 | 0.00 | 0.00 | 82 | 1014.7 |
| 20260904134500 | 27 | 316 | 1.6 | 4.8 | 0.00 | 0.00 | 0.00 | 82 | 1014.7 |
| 20260904133056 | 26 | 282 | 0.0 | 3.2 | 0.00 | 0.00 | 0.00 | 84 | 1014.5 |
| 20260904131557 | 25 | 278 | 0.0 | 3.2 | 0.00 | 0.00 | 0.00 | 86 | 1014.4 |
| 20260904130059 | 25 | 278 | 0.0 | 0.0 | 0.00 | 0.00 | 0.00 | 88 | 1014.8 |
| 20260904124504 | 24 | 285 | 0.0 | 0.0 | 0.00 | 0.00 | 0.00 | 87 | 1014.9 |
| 20260904123008 | 23 | 285 | 0.0 | 0.0 | 0.00 | 0.00 | 0.00 | 87 | 1014.9 |
| 20260904121513 | 23 | 285 | 0.0 | 0.0 | 0.00 | 0.00 | 0.00 | 88 | 1014.9 |
| 20260904120019 | 23 | 285 | 0.0 | 0.0 | 0.00 | 0.00 | 0.00 | 87 | 1014.7 |
| 20260904114525 | 23 | 285 | 0.0 | 0.0 | 0.00 | 0.00 | 0.00 | 88 | 1014.3 |
| 20260904113012 | 22 | 285 | 0.0 | 0.0 | 0.00 | 0.00 | 0.00 | 87 | 1014.2 |
| 20260904111603 | 22 | 285 | 0.0 | 0.0 | 0.00 | 0.00 | 0.00 | 87 | 1014.0 |
| 20260904110050 | 22 | 285 | 0.0 | 0.0 | 0.00 | 0.00 | 0.00 | 87 | 1014.0 |
| 20260904104557 | 22 | 285 | 0.0 | 0.0 | 0.00 | 0.00 | 0.00 | 87 | 1013.7 |
| 20260904103058 | 22 | 285 | 0.0 | 0.0 | 0.00 | 0.00 | 0.00 | 87 | 1013.4 |
| 20260904101505 | 23 | 285 | 0.0 | 0.0 | 0.00 | 0.00 | 0.00 | 87 | 1013.5 |
| 20260904100019 | 23 | 285 | 0.0 | 0.0 | 0.00 | 0.00 | 0.00 | 87 | 1013.5 |
| 20260904094507 | 23 | 285 | 0.0 | 0.0 | 0.00 | 0.00 | 0.00 | 87 | 1013.5 |
| 20260904093009 | 23 | 285 | 0.0 | 0.0 | 0.00 | 0.00 | 0.00 | 87 | 1013.5 |
| 20260904091512 | 23 | 285 | 0.0 | 0.0 | 0.00 | 0.00 | 0.00 | 87 | 1013.3 |
| 20260904090012 | 23 | 285 | 0.0 | 0.0 | 0.00 | 0.00 | 0.00 | 87 | 1013.3 |
| 20260904084556 | 23 | 285 | 0.0 | 0.0 | 0.00 | 0.00 | 0.00 | 88 | 1013.3 |
| 20260904083007 | 23 | 285 | 0.0 | 0.0 | 0.00 | 0.00 | 0.00 | 88 | 1013.3 |
| 20260904081513 | 23 | 285 | 0.0 | 0.0 | 0.00 | 0.00 | 0.00 | 88 | 1013.6 |
| 20260904080019 | 22 | 285 | 0.0 | 0.0 | 0.00 | 0.00 | 0.00 | 87 | 1013.5 |
| 20260904074524 | 22 | 285 | 0.0 | 0.0 | 0.00 | 0.00 | 0.00 | 88 | 1013.7 |